Regional Weather Roundup
Issued by NWS Little Rock, AR

Home | Current Version | Previous Version | Text Only | Print | Product List | Glossary Off
Versions: 1 2 3 4 5 6 7 8 9 10 11 12 13 14 15 16 17 18 19 20 21 22 23 24 25 26 27 28 29 30 31 32 33 34 35 36 37 38 39 40 41 42 43 44 45 46 47 48 49 50

000
ASUS44 KLZK 170605
RWRLZK

WEATHER ROUNDUP FOR ARKANSAS
NATIONAL WEATHER SERVICE LITTLE ROCK AR
1200 AM CST SUN DEC 17 2017

NOTE: "FAIR" INDICATES FEW OR NO CLOUDS BELOW 12,000 FEET WITH NO
SIGNIFICANT WEATHER AND/OR OBSTRUCTIONS TO VISIBILITY.

ARZ001-003-010-029-170700-
NORTHWEST ARKANSAS

CITY           SKY/WX    TMP DP  RH WIND       PRES   REMARKS
FAYETTEVILLE   LGT RAIN  42  41  96 S8        30.06R FOG
6HR MIN TEMP:  42; 6HR MAX TEMP:  51; 6HR PCP:  0.09;

FORT SMITH     RAIN      45  43  93 E5        30.10S
6HR MIN TEMP:  45; 6HR MAX TEMP:  55; 6HR PCP:  0.22;

HARRISON       LGT RAIN  43  38  82 S8        30.07R
6HR MIN TEMP:  43; 6HR MAX TEMP:  49; 6HR PCP:  0.03;

BENTONVILLE    LGT RAIN  42  39  89 S7        30.07R
6HR MIN TEMP:  42; 6HR MAX TEMP:  50; 6HR PCP:  0.05;

ROGERS         CLOUDY    42  39  89 S8        30.06R
6HR MIN TEMP:  42; 6HR MAX TEMP:  50; 6HR PCP:  0.08;

SILOAM SPGS    RAIN      42  39  89 S10       30.06R
6HR MIN TEMP:  42; 6HR MAX TEMP:  51; 6HR PCP:  0.06;

HIGHFILL       LGT RAIN  42  40  92 S7        30.05R
6HR MIN TEMP:  42; 6HR MAX TEMP:  51; 6HR PCP:  0.06;

$$

ARZ004-005-016-170700-
NORTH CENTRAL ARKANSAS

CITY           SKY/WX    TMP DP  RH WIND       PRES   REMARKS
BATESVILLE     LGT RAIN  47  37  68 S6        30.12R
6HR MIN TEMP:  47; 6HR MAX TEMP:  49; 6HR PCP: TRACE;

FLIPPIN        LGT RAIN  46  36  68 S3        30.09R
6HR MIN TEMP:  46; 6HR MAX TEMP:  51; 6HR PCP: TRACE;

MTN HOME       LGT RAIN  45  33  63 S3        30.06R
6HR MIN TEMP:  45; 6HR MAX TEMP:  49; 6HR PCP: TRACE;

$$

ARZ040-041-170700-
WEST CENTRAL ARKANSAS

CITY           SKY/WX    TMP DP  RH WIND       PRES   REMARKS
MENA           CLOUDY    45  45 100 CALM      30.11S
MOUNT IDA      LGT RAIN  45  43  93 VRB3      30.09F
6HR MIN TEMP:  45; 6HR MAX TEMP:  53; 6HR PCP:  0.10;

$$

ARZ009-017-025-026-028-170700-
NORTHEAST ARKANSAS

CITY           SKY/WX    TMP DP  RH WIND       PRES   REMARKS
CORNING        MOCLDY    46  34  61 SE6       30.11F
JONESBORO      CLOUDY    45  35  68 S6        30.12F
6HR MIN TEMP:  43; 6HR MAX TEMP:  46;

NEWPORT        LGT RAIN  45  37  73 S9        30.13R
6HR MIN TEMP:  42; 6HR MAX TEMP:  46; 6HR PCP: TRACE;

WALNUT RIDGE   CLOUDY    45  34  65 S9        30.11F
6HR MIN TEMP:  41; 6HR MAX TEMP:  47;

BLYTHEVILLE    CLOUDY    46  32  58 S8        30.13F
6HR MIN TEMP:  45; 6HR MAX TEMP:  48;

$$

ARZ022-023-033-042-044-170700-
CENTRAL ARKANSAS

CITY           SKY/WX    TMP DP  RH WIND       PRES   REMARKS
LITTLE ROCK    RAIN      45  42  89 S10       30.18R FOG
6HR MIN TEMP:  44; 6HR MAX TEMP:  50; 6HR PCP:  0.07;

N LITTLE ROCK    N/A     44  41  87 S6        30.20R
6HR MIN TEMP:  44; 6HR MAX TEMP:  51;

JACKSONVILLE   LGT RAIN  46  42  88 S8        30.17R
6HR MIN TEMP:  45; 6HR MAX TEMP:  51; 6HR PCP:  0.05;

SEARCY         LGT RAIN  45  42  89 SW5       30.16R
6HR MIN TEMP:  45; 6HR MAX TEMP:  49;

HOT SPRINGS    RAIN      46  45  96 CALM      30.13F
6HR MIN TEMP:  45; 6HR MAX TEMP:  53; 6HR PCP:  0.15;

RUSSELLVILLE   RAIN      44  43  96 CALM      30.13R
6HR MIN TEMP:  44; 6HR MAX TEMP:  52; 6HR PCP:  0.14;

CLINTON        LGT RAIN  45  37  76 S6        30.14R
$$

ARZ036-170700-
EAST ARKANSAS

CITY           SKY/WX    TMP DP  RH WIND       PRES   REMARKS
WEST MEMPHIS   CLOUDY    47  34  60 SE7       30.12F
6HR MIN TEMP:  41; 6HR MAX TEMP:  47;

$$

ARZ050-053-066-070-073-170700-
SOUTHWEST ARKANSAS

CITY           SKY/WX    TMP DP  RH WIND       PRES   REMARKS
ARKADELPHIA    RAIN      45  44  97 CALM      30.16F FOG
6HR MIN TEMP:  45; 6HR MAX TEMP:  51; 6HR PCP:  0.34;

CAMDEN         HVY RAIN  45  43  93 NE7       30.11F
TEXARKANA      HVY RAIN  43  43 100 SE5       30.11F FOG
6HR MIN TEMP:  43; 6HR MAX TEMP:  53; 6HR PCP:  1.14;

DE QUEEN       RAIN      45  45 100 CALM      30.10F FOG
6HR MIN TEMP:  45; 6HR MAX TEMP:  55;

$$

ARZ056-057-069-170700-
SOUTHEAST ARKANSAS

CITY           SKY/WX    TMP DP  RH WIND       PRES   REMARKS
PINE BLUFF     RAIN      45  42  89 W6        30.18R FOG
6HR MIN TEMP:  45; 6HR MAX TEMP:  50; 6HR PCP:  0.06;

STUTTGART      LGT RAIN  45  41  86 SW3       30.16R
6HR MIN TEMP:  45; 6HR MAX TEMP:  50; 6HR PCP:  0.02;

MONTICELLO     CLOUDY    50  34  54 N3        30.11S
6HR MIN TEMP:  49; 6HR MAX TEMP:  51;


$$





USA.gov is the U.S. government's official web portal to all federal, state and local government web resources and services.